{"data":{"norad_id":51975,"intl_designator":"2022-025V","name":"STARLINK-3674","alt_names":[],"object_type":"PAYLOAD","status":"ACTIVE","operator":null,"country":"US","launch_date":"2022-03-09","launch_site_code":"AFETR","launch_vehicle":null,"mission":null,"orbit_class":"UNKNOWN","rcs_meters":null,"size_class":null,"mass_kg":null,"dimensions":null,"purposes":["comms"],"wikipedia_slug":null,"has_3d_model":false,"image_url":null,"decayed_at":null,"tle_current":{"epoch":"2026-09-19T13:17:03.281280Z","epoch_age_seconds":137973,"freshness":"FRESH","line1":"1 51975U 22025V   26262.55351020 -.00000269  00000+0  30903-5 0  9994","line2":"2 51975  53.1605 201.6087 0001431  92.9575 267.1590 15.31695639250734","mean_motion":15.31695639,"eccentricity":0.0001431,"inclination_deg":53.1605,"raan_deg":201.6087,"arg_perigee_deg":92.9575,"mean_anomaly_deg":267.159,"bstar":3.0903e-6,"rev_number":25073,"period_min":94.013455632748,"perigee_km":469.77291901226,"apogee_km":471.73307132887,"semimajor_km":6848.8899951706,"source":"CELESTRAK","updated_at":"2026-09-20T09:00:39.978704Z"}}}